Weather History for Port Hedland, WE

Change the Weather History Date:

Thursday, October 11, 2012

  Actual Average Record
Temperature  
Mean Temperature 87 °F -  
Max Temperature 99 °F 95 °F 107 °F (2004)
Min Temperature 75 °F 67 °F 60 °F (1997)
Cooling Degree Days 22    
Growing Degree Days 37 (Base 50)    
Moisture  
Dew Point 15 °F    
Average Humidity 9    
Maximum Humidity 50    
Minimum Humidity 4    
Precipitation  
Precipitation 0.00 in 0.00 in - ()
Sea Level Pressure  
Sea Level Pressure 29.94 in    
Wind  
Wind Speed 13 mph ()    
Max Wind Speed 25 mph    
Max Gust Speed 36 mph    
Visibility 5.5 miles    
Events      
Averages and records for this station are not official NWS values.
T = Trace of Precipitation, MM = Missing Value Source: Averaged Metar Reports

Daily Weather History Graph

Daily Weather History Graph

Search for Another Location

Airport:

Trip Planner

Search our weather history database for the weather conditions in past years. The results will help you decide how hot, cold, wet, or windy it might be!

Date:

Astronomy

Oct. 11, 2012 Rise Set
Actual Time 5:38 AM WST 6:06 PM WST
Civil Twilight 5:15 AM WST 6:28 PM WST
Nautical Twilight 4:49 AM WST 6:54 PM WST
Astronomical Twilight 4:23 AM WST 7:21 PM WST
Moon 2:11 AM WST (10/11) 2:02 PM WST (10/11)
Length of Visible Light 13h 13m
Length of Day
12h 28m
Waning Crescent, 23% of the Moon is Illuminated
Oct 11
Waning Crescent
Oct 15
New
Oct 22
First Quarter
Oct 30
Full
Nov 7
Last Quarter

Hourly Weather History & Observations

Time (WST) Temp. Dew Point Humidity Pressure Visibility Wind Dir Wind Speed Gust Speed Precip Events Conditions
12:00 AM 76 °F 56 °F 40% 29.92 in - South 5.8 mph - -  
12:00 AM 77.0 °F 57.2 °F 50% 29.92 in 6.2 mi South 5.8 mph - N/A   Unknown
12:30 AM 80.6 °F 46.4 °F 30% 29.92 in 5.0 mi ESE 6.9 mph - N/A   Overcast
1:00 AM 80.6 °F 41.0 °F 24% 29.92 in 3.7 mi ESE 9.2 mph - N/A   Overcast
1:30 AM 78.8 °F 33.8 °F 20% 29.92 in - ESE 9.2 mph - N/A   Unknown
2:00 AM 80 °F 30 °F 8% 29.93 in - ESE 9.2 mph - -  
2:00 AM 80.6 °F 30.2 °F 16% 29.92 in - ESE 9.2 mph - N/A   Unknown
2:30 AM 78.8 °F 30.2 °F 17% 29.92 in 2.5 mi ESE 8.1 mph - N/A   Unknown
3:00 AM 80 °F 29 °F 8% 29.93 in 2 mi SE 10.4 mph - -  
3:00 AM 80.6 °F 28.4 °F 15% 29.92 in 2.5 mi SE 10.4 mph - N/A   Unknown
3:30 AM 78.8 °F 28.4 °F 16% 29.92 in - North - - N/A   Unknown
4:00 AM 77.0 °F 30.2 °F 18% 29.92 in 3.1 mi SE 10.4 mph - N/A   Unknown
4:30 AM 77.0 °F 28.4 °F 17% 29.95 in 3.7 mi SE 10.4 mph - N/A   Unknown
4:58 AM 78.8 °F 23.0 °F 13% 29.95 in 4.3 mi SE 16.1 mph - N/A   Unknown
5:00 AM 79 °F 24 °F 6% 29.96 in - SE 16.1 mph - -  
5:00 AM 78.8 °F 23.0 °F 13% 29.95 in 4.3 mi SE 16.1 mph - N/A   Unknown
5:30 AM 78.8 °F 23.0 °F 13% 29.95 in 5.0 mi SE 19.6 mph - N/A   Unknown
6:00 AM 78 °F 23 °F 6% 29.98 in 6 mi SE 16.1 mph - -   Haze
6:00 AM 78.8 °F 23.0 °F 13% 29.98 in - SE 16.1 mph - N/A   Clear
6:30 AM 78.8 °F 23.0 °F 13% 29.98 in - SE 16.1 mph - N/A   Clear
7:00 AM 80.6 °F 19.4 °F 10% 29.98 in - ESE 19.6 mph - N/A   Clear
7:08 AM 82.4 °F 17.6 °F 9% 30.01 in 5.6 mi ESE 20.7 mph 32.2 mph N/A   Unknown
7:19 AM 82.4 °F 15.8 °F 8% 30.01 in 5.6 mi ESE 21.9 mph - N/A   Clear
7:22 AM 82.4 °F 15.8 °F 8% 30.01 in 5.6 mi ESE 23.0 mph 35.7 mph N/A   Clear
7:30 AM 82.4 °F 15.8 °F 8% 30.01 in 4.3 mi ESE 25.3 mph - N/A   Clear
8:00 AM 84 °F 12 °F 4% 30.02 in - ESE 25.3 mph - -  
8:00 AM 84.2 °F 12.2 °F 7% 30.01 in 4.3 mi ESE 25.3 mph - N/A   Clear
8:20 AM 86.0 °F 10.4 °F 6% 30.01 in 4.3 mi ESE 24.2 mph - N/A   Clear
8:30 AM 86.0 °F 10.4 °F 6% 30.01 in 4.3 mi ESE 23.0 mph - N/A   Clear
9:00 AM 87 °F 12 °F 4% 30.02 in 6 mi ESE 25.3 mph - -   Blowing Sand
9:00 AM 87.8 °F 12.2 °F 6% 30.01 in 5.6 mi ESE 25.3 mph - N/A   Clear
9:30 AM 87.8 °F 10.4 °F 6% 30.01 in 5.6 mi ESE 23.0 mph - N/A   Clear
10:00 AM 91.4 °F 12.2 °F 5% 30.01 in 6.2 mi East 20.7 mph - N/A   Clear
10:30 AM 91.4 °F 12.2 °F 5% 29.98 in 6.2 mi ESE 21.9 mph - N/A   Clear
11:00 AM 92 °F 12 °F 4% 29.99 in - East 20.7 mph - -  
11:00 AM 91.4 °F 12.2 °F 5% 29.98 in - East 20.7 mph - N/A   Clear
11:30 AM 95.0 °F 15.8 °F 6% 29.98 in - East 19.6 mph - N/A   Clear
12:00 PM 94 °F 14 °F 4% 29.96 in 9 mi East 19.6 mph - -   Blowing Sand
12:00 PM 93.2 °F 14.0 °F 5% 29.95 in 6.2 mi East 19.6 mph - N/A   Unknown
12:30 PM 95.0 °F 14.0 °F 5% 29.95 in - East 19.6 mph - N/A   Clear
1:00 PM 96.8 °F 8.6 °F 4% 29.92 in - East 19.6 mph - N/A   Clear
1:14 PM 98.6 °F 6.8 °F 4% 29.92 in - East 18.4 mph 31.1 mph N/A   Clear
1:30 PM 98.6 °F -2.2 °F 4% 29.89 in - ESE 20.7 mph - N/A   Clear
2:00 PM 98 °F 2 °F 4% 29.90 in - ESE 17.3 mph - -  
2:00 PM 98.6 °F 1.4 °F 4% 29.89 in - ESE 17.3 mph - N/A   Clear
2:16 PM 98.6 °F -2.2 °F 4% 29.89 in - East 19.6 mph 32.2 mph N/A   Clear
2:30 PM 98.6 °F -2.2 °F 4% 29.89 in - East 17.3 mph - N/A   Clear
3:00 PM 99 °F -14 °F 4% 29.88 in 9 mi East 18.4 mph - -   Haze
3:00 PM 98.6 °F -14.8 °F 4% 29.86 in - East 18.4 mph - N/A   Clear
3:30 PM 98.6 °F -4.0 °F 4% 29.86 in 6.2 mi ESE 17.3 mph - N/A   Unknown
4:00 PM 98.6 °F -7.6 °F 4% 29.86 in 6.2 mi ESE 15.0 mph - N/A   Unknown
4:30 PM 98.6 °F -0.4 °F 4% 29.86 in 6.2 mi SE 13.8 mph - N/A   Unknown
5:00 PM 97 °F -3 °F 4% 29.87 in - ESE 15.0 mph - -  
5:00 PM 96.8 °F -4.0 °F 4% 29.86 in 6.2 mi ESE 15.0 mph - N/A   Unknown
5:30 PM 95.0 °F -2.2 °F 4% 29.86 in 6.2 mi ESE 13.8 mph - N/A   Unknown
6:00 PM 93.2 °F 1.4 °F 4% 29.89 in 6.2 mi SE 10.4 mph - N/A   Unknown
6:30 PM 89.6 °F 10.4 °F 5% 29.89 in 6.2 mi SE 10.4 mph - N/A   Unknown
7:00 PM 86.0 °F 15.8 °F 7% 29.92 in 6.2 mi SSE 9.2 mph - N/A   Unknown
7:30 PM 82.4 °F 12.2 °F 7% 29.92 in 6.2 mi SSE 10.4 mph - N/A   Unknown
8:00 PM 81 °F 16 °F 4% 29.94 in - SSE 9.2 mph - -  
8:00 PM 80.6 °F 15.8 °F 9% 29.92 in 6.2 mi SSE 9.2 mph - N/A   Unknown
8:30 PM 78.8 °F 12.2 °F 8% 29.95 in 6.2 mi SSE 10.4 mph - N/A   Unknown
9:00 PM 77 °F 14 °F 4% 29.95 in - SSE 11.5 mph - -  
9:00 PM 77.0 °F 14.0 °F 9% 29.95 in 6.2 mi SSE 11.5 mph - N/A   Unknown
9:30 PM 75.2 °F 17.6 °F 11% 29.95 in 6.2 mi SSE 11.5 mph - N/A   Unknown
10:00 PM 77.0 °F 12.2 °F 9% 29.95 in 6.2 mi SE 11.5 mph - N/A   Unknown
10:30 PM 78.8 °F 3.2 °F 5% 29.95 in 6.2 mi SE 11.5 mph - N/A   Unknown
11:00 PM 76 °F 9 °F 4% 29.96 in - SE 10.4 mph - -  
11:00 PM 77.0 °F 8.6 °F 7% 29.95 in 6.2 mi SE 10.4 mph - N/A   Unknown
11:30 PM 77.0 °F 5.0 °F 6% 29.95 in 6.2 mi SE 11.5 mph - N/A   Unknown